Weather observations for the past three days for
Valentine, Miller Field
Imperial (Metric)
Date Time (cdt) Wind (mph) Vis. (mi.) Weather Sky Cond. Temperature (ºF) Relative Humidity Wind Chill (°F) Heat Index (°F) Pressure Precipitation (in)
Air Dwpt 6 hour altimeter (in) sea level (mb) 1 hr 3 hr 6 hr
Max. Min.
18 01:52 NE 6 10.00 Fair CLR 63 57 81% 30.21 1021.4
18 00:52 E 6 10.00 Mostly Cloudy BKN085 64.9 57 82 64.9 76% 30.22 1021.7
17 23:52 SE 9 10.00 Mostly Cloudy BKN100 68 57 68% 30.22 1021.5
17 22:52 SE 9 10.00 Fair CLR 69.1 57 66% 30.21 1021.2
17 21:52 SE 8 10.00 Fair CLR 71.1 57 61% 30.2 1020.9
17 20:52 E 9 10.00 Fair CLR 75 57 54% 78 30.19 1020.4
17 19:52 SE 16 10.00 A Few Clouds FEW060 79 55.9 45% 80 30.17 1019.7
17 18:52 E 8 10.00 Fair CLR 82 55.9 84.9 80.1 41% 82 30.18 1020.3
17 17:52 E 8 10.00 Partly Cloudy SCT060 82 55 40% 81 30.18 1020.4
17 16:52 E 15 G 18 10.00 Partly Cloudy SCT060 82.9 55 38% 82 30.18 1020.2
17 15:52 NE 9 10.00 Mostly Cloudy SCT060 BKN080 81 55 41% 81 30.2 1021.0
17 14:52 E 7 10.00 Overcast BKN065 OVC080 81 55 41% 81 30.21 1021.2
17 12:52 E 12 G 16 10.00 Overcast OVC060 81 54 82.9 63 39% 81 30.22 1021.6
17 11:52 E 10 G 20 10.00 A Few Clouds FEW080 82 54 38% 81 30.22 1021.5
17 10:52 E 12 G 17 10.00 Fair CLR 80.1 59 49% 81 30.22 1021.4
17 09:52 E 7 10.00 Fair CLR 77 61 58% 79 30.21 1021.3
17 08:52 NE 6 10.00 Fair CLR 73.9 60.1 62% 30.21 1021.1
17 07:52 Calm 10.00 Overcast OVC095 69.1 60.1 73% 30.2 1020.8
17 06:52 Calm 10.00 Mostly Cloudy BKN100 63 59 64.9 60.1 87% 30.19 1020.5
17 05:52 NW 3 10.00 Overcast OVC100 62.1 59 90% 30.18 1020.2
17 04:52 W 3 10.00 Overcast OVC100 62.1 60.1 93% 30.17 1019.7
17 03:52 Calm 10.00 Overcast OVC100 61 57.9 90% 30.15 1018.8
17 02:52 NW 5 10.00 Partly Cloudy SCT095 61 57.9 90% 30.14 1018.5
17 01:52 Calm 10.00 Fair CLR 61 57.9 90% 30.14 1018.7
17 00:52 Calm 10.00 Fair CLR 64.9 59 84 64.9 81% 30.14 1018.6
16 23:52 NE 7 10.00 Fair CLR 66.9 60.1 79% 30.13 1018.2
16 22:52 NE 7 10.00 Fair CLR 69.1 61 76% 30.11 1017.7
16 21:52 E 7 10.00 Fair CLR 71.1 62.1 73% 30.09 1017.0
16 20:52 E 16 10.00 Fair CLR 75 63 66% 77 30.07 1016.3
16 19:52 E 13 10.00 Fair CLR 81 64 57% 83 30.04 1015.2
16 18:52 NE 17 G 25 10.00 A Few Clouds FEW070 84 63 91 82 49% 85 30.01 1014.3
16 17:52 NE 15 G 22 10.00 Mostly Cloudy BKN055 BKN075 86 62.1 45% 87 30 1013.7
16 16:52 E 12 10.00 Mostly Cloudy BKN055 84.9 62.1 46% 85 29.98 1013.1
16 15:52 NE 8 10.00 Partly Cloudy SCT060 91 63 39% 92 29.99 1012.8
16 14:52 SE 6 10.00 A Few Clouds FEW055 87.1 62.1 43% 88 29.99 1013.3
16 13:52 NE 6 10.00 Mostly Cloudy SCT046 BKN110 84.9 63 48% 86 29.99 1013.5
16 12:52 E 10 10.00 Fair CLR 82 63 84 63 53% 83 30 1013.6
16 11:52 SE 5 10.00 A Few Clouds FEW031 81 64 57% 83 30.01 1014.0
16 10:52 SW 5 10.00 Fair CLR 77 64 64% 79 30.01 1014.3
16 09:52 S 10 10.00 Partly Cloudy SCT021 75 64.9 71% 77 30 1013.7
16 08:52 S 6 10.00 Fair CLR 72 63 73% 30.01 1013.9
16 07:52 S 6 10.00 Fair CLR 66.9 63 87% 29.98 1013.0
16 06:52 S 3 10.00 Fair CLR 63 61 71.1 63 93% 29.97 1012.6
16 05:52 E 5 10.00 A Few Clouds FEW110 64 61 90% 29.96 1012.1
16 04:52 NE 8 10.00 A Few Clouds FEW110 66 62.1 87% 29.97 1012.4
16 03:52 SE 8 10.00 Mostly Cloudy FEW090 BKN120 68 62.1 81% 29.97 1012.1
16 02:52 SE 6 10.00 A Few Clouds FEW110 66.9 64 91% 29.98 1012.7
16 01:52 W 9 10.00 Light Rain FEW055 FEW095 OVC110 66.9 62.1 84% 30.04 1014.9
16 00:52 N 3 10.00 A Few Clouds FEW120 70 57.9 88 69.1 66% 30 1013.6
15 23:52 E 6 10.00 Fair CLR 70 59 68% 29.97 1012.3
15 22:52 NE 6 10.00 Fair CLR 73 60.1 64% 29.97 1012.3
15 21:52 NE 8 10.00 A Few Clouds FEW120 78.1 57.9 50% 79 29.98 1012.5
15 20:52 NE 13 10.00 Fair CLR 80.1 63 56% 81 29.95 1011.4
15 19:52 NE 9 10.00 Fair CLR 84 61 46% 84 29.92 1010.6
15 18:52 NE 10 10.00 Fair CLR 88 60.1 91.9 88 39% 88 29.92 1010.2
15 17:52 N 10 10.00 Fair CLR 90 57 33% 89 29.92 1010.4
15 16:52 NE 9 10.00 Fair CLR 90 57.9 34% 89 29.93 1010.7
15 15:52 NE 12 G 21 10.00 Fair CLR 91 59 34% 90 29.94 1011.2
15 14:52 N 10 G 20 10.00 Fair CLR 91 59 34% 90 29.95 1011.3
15 13:52 NW 13 10.00 Fair CLR 90 60.1 37% 90 29.95 1011.3
15 12:52 NW 12 10.00 Fair CLR 88 57 90 75.9 35% 87 29.95 1011.4
15 11:52 N 12 10.00 Fair CLR 89.1 57 34% 88 29.94 1011.0
15 10:52 N 14 10.00 Fair CLR 89.1 59 36% 88 29.94 1011.1
15 09:52 N 20 G 26 10.00 Fair CLR 82 61 49% 83 29.93 1010.7
15 08:52 N 14 10.00 Fair CLR 84 61 46% 84 29.88 1009.2
15 07:52 NW 5 10.00 Fair CLR 78.1 63 60% 80 29.87 1008.8
15 06:52 NW 10 G 20 10.00 Fair CLR 75.9 64 77 73 67% 78 29.86 1008.3
15 05:52 Calm 10.00 A Few Clouds FEW070 73 68 84% 29.84 1007.7
15 04:52 NW 3 10.00 Fair CLR 75 66.9 76% 76 29.83 1007.2
15 03:52 SW 8 10.00 Fair CLR 75 66.9 76% 76 29.84 1007.3
15 02:52 S 13 10.00 Fair CLR 77 66.9 71% 79 29.85 1007.8
Date Time (cdt) Wind (mph) Vis. (mi.) Weather Sky Cond. Air Dwpt Max. Min. Relative Humidity Wind Chill (°F) Heat Index (°F) altimeter (in) sea level (mb) 1 hr 3 hr 6 hr
6 hour
Temperature (ºF) Pressure Precipitation (in)